ORBCOMM FM116 [+]

Last updated on Fri Dec 29 2023 00:02:54 GMT+0000 (Coordinated Universal Time)

1 41189U 15081L 23361.69156652 .00001039 00000+0 27058-3 0 9990 2 41189 46.9999 209.9501 0002084 122.4069 237.7017 14.56157333427261

Satellite not in orbit

ORBCOMM FM116 [+]